Regional Weather Roundup
Issued by NWS

Home | Current Version | Previous Version | Graphics & Text | Print | Product List | Glossary On
Versions: 1 2 3 4 5 6 7 8 9 10 11 12 13 14 15 16 17 18 19 20 21 22 23 24 25 26 27 28 29 30 31 32 33 34 35 36 37 38 39 40 41 42 43 44 45 46 47 48 49 50
000
ASUS43 KTOP 282359
RWRKS

WEATHER ROUNDUP FOR KANSAS
NATIONAL WEATHER SERVICE GOODLAND KS
700 PM CDT FRI AUG 28 2015

NOTE:  "FAIR" INDICATES FEW OR NO CLOUDS BELOW 12,000 FEET WITH NO
SIGNIFICANT WEATHER AND/OR OBSTRUCTIONS TO VISIBILITY.

KSZ001>006-013>018-027>032-041>047-290100-
NORTHWEST KANSAS

CITY           SKY/WX    TMP DP  RH WIND       PRES   REMARKS
GOODLAND       SUNNY     87  47  24 NE14      30.05R
6HR MIN TEMP:  87; 6HR MAX TEMP:  93;

HAYS           SUNNY     88  61  40 N18       29.94R
HILL CITY      SUNNY     86  60  41 N16       29.97R
6HR MIN TEMP:  86; 6HR MAX TEMP:  92;

RUSSELL        SUNNY     85  63  47 N16       29.92R
6HR MIN TEMP:  85; 6HR MAX TEMP:  91;

$$

KSZ061>065-074>080-084>089-290100-
SOUTHWEST KANSAS

CITY           SKY/WX    TMP DP  RH WIND       PRES   REMARKS
DODGE CITY     SUNNY     89  57  33 N3        29.95S
6HR MIN TEMP:  85; 6HR MAX TEMP:  93;

ELKHART          N/A     89  58  35 N1          N/A
GARDEN CITY    MOSUNNY   88  54  31 NE9       29.97S
6HR MIN TEMP:  86; 6HR MAX TEMP:  94;

GREAT BEND     SUNNY     90  61  37 N15G22    29.91R
LIBERAL        MOSUNNY   90  54  29 W3        30.00S
PRATT          SUNNY     90  54  29 CALM      29.92F
$$

KSZ066>073-081>083-090>101-290100-
SOUTHEAST KANSAS

CITY           SKY/WX    TMP DP  RH WIND       PRES   REMARKS
CHANUTE        PTSUNNY   76  69  79 S10       29.93S
6HR MIN TEMP:  70; 6HR MAX TEMP:  77;

COFFEYVILLE    CLOUDY    77  70  79 S6        29.93R
6HR MIN TEMP:  72; 6HR MAX TEMP:  78; 6HR PCP: TRACE;

HUTCHINSON     SUNNY     87  65  47 N9        29.90R
6HR MIN TEMP:  86; 6HR MAX TEMP:  93;

NEWTON         MOSUNNY   84  68  58 NE17      29.92R THUNDER
PARSONS        MOSUNNY   76  70  82 S5        29.94R
6HR MIN TEMP:  70; 6HR MAX TEMP:  79;

WICHITA INTL   MOSUNNY   84  69  60 S15       29.87R
6HR MIN TEMP:  84; 6HR MAX TEMP:  90;

WICHITA JABRA  SUNNY     82  69  64 S16       29.87S
6HR MIN TEMP:  81; 6HR MAX TEMP:  88;

WINFIELD       MOSUNNY   80  69  69 SE12      29.91R
6HR MIN TEMP:  80; 6HR MAX TEMP:  87;

$$

KSZ007>012-019>026-033>040-048>060-102>105-290100-
NORTHEAST KANSAS

CITY           SKY/WX    TMP DP  RH WIND       PRES   REMARKS
CONCORDIA      PTSUNNY   76  66  71 N15       29.92R
6HR MIN TEMP:  74; 6HR MAX TEMP:  84; 6HR PCP:  0.04;

EMPORIA        CLOUDY    76  68  76 SE10      29.89R
6HR MIN TEMP:  75; 6HR MAX TEMP:  83; 6HR PCP: TRACE;

LAWRENCE       CLOUDY    76  66  71 S10       29.89S
6HR MIN TEMP:  75; 6HR MAX TEMP:  82;

MANHATTAN      MOSUNNY   82  70  66 W5        29.86S
6HR MIN TEMP:  82; 6HR MAX TEMP:  88;

OLATHE IND     CLOUDY    73  67  81 S10       29.92R
6HR MIN TEMP:  72; 6HR MAX TEMP:  78;

OLATHE EXE     CLOUDY    72  67  84 S8        29.91F
6HR MIN TEMP:  71; 6HR MAX TEMP:  77; 6HR PCP: TRACE;

SALINA         PTSUNNY   84  68  58 N8        29.89R
6HR MIN TEMP:  83; 6HR MAX TEMP:  88;

TOPEKA BILLARD PTSUNNY   77  67  71 S10       29.88S
6HR MIN TEMP:  77; 6HR MAX TEMP:  84; 6HR PCP: TRACE;

TOPEKA FORBES  CLOUDY    76  67  73 S13       29.88S
6HR MIN TEMP:  76; 6HR MAX TEMP:  84; 6HR PCP: TRACE;

$$


USA.gov is the U.S. government's official web portal to all federal, state and local government web resources and services.